GEFSMW_con_cape1000_180.txt.gz
Probability
39 35 48 65 61 65 52 48 42 45 48 55 52 42 42 32 23 23 19 13 19 16 16 13 10 6 6 10 10 6 6 6 3 3 3 3 0 0 0 0 0 0 0
39 48 48 58 71 61 61 58 45 58 55 58 48 42 35 32 19 26 26 19 16 19 19 13 6 6 6 6 6 6 6 6 3 3 3 0 0 0 0 0 0 0 0
48 52 52 58 65 68 58 58 58 52 52 52 48 42 26 35 32 23 19 23 19 19 23 16 6 6 6 10 3 6 6 6 6 0 0 0 0 0 0 0 0 0 0
55 45 48 58 68 68 71 55 52 58 48 45 45 39 32 26 26 16 16 6 16 23 19 13 16 13 13 10 10 6 6 3 3 0 0 0 0 0 0 0 0 0 0
58 55 52 61 65 61 61 48 52 55 55 45 42 32 23 26 19 6 13 10 13 13 13 13 13 13 13 13 13 13 6 6 3 3 0 0 0 0 0 0 0 0 0
58 52 61 68 71 61 52 61 61 52 48 42 35 35 23 19 23 13 6 6 10 10 16 16 10 10 13 13 13 10 6 3 3 3 0 0 0 0 0 0 0 0 0
61 61 58 61 65 58 61 55 55 58 45 42 42 35 29 23 19 16 10 13 10 13 13 16 6 6 6 6 6 6 10 6 6 6 3 3 3 0 0 0 0 0 0
58 58 61 58 55 52 61 58 55 55 55 42 39 35 29 26 19 16 16 13 13 13 6 10 6 10 10 13 6 6 10 10 10 10 3 3 3 3 3 3 3 3 0
61 58 58 55 45 48 52 55 52 52 48 45 32 26 29 26 23 23 23 16 10 10 10 10 6 6 10 13 10 6 6 10 6 6 6 6 10 6 3 3 3 3 3
61 58 52 45 45 42 48 48 45 45 48 35 35 35 32 26 23 23 16 16 16 13 13 13 13 13 13 19 10 6 10 6 6 6 6 3 3 3 3 3 3 3 3
61 55 52 45 45 48 42 35 39 39 35 35 32 35 39 29 26 19 19 13 16 13 10 10 13 13 10 10 10 6 6 6 0 0 0 0 0 0 0 0 0 0 3
61 61 48 48 45 45 35 35 32 35 32 32 32 26 26 19 19 19 19 16 16 13 13 13 13 10 13 6 6 0 6 3 6 0 0 0 0 0 0 0 0 0 0
52 55 48 52 48 45 39 32 29 32 32 26 29 23 19 19 19 19 19 19 13 13 6 6 6 3 3 6 3 0 0 0 0 0 0 0 0 0 0 0 0 0 0
58 61 48 48 48 42 29 32 32 32 26 26 23 23 19 19 19 19 16 10 10 10 10 6 6 6 6 6 6 0 0 0 0 0 0 0 0 0 0 0 0 0 0
61 58 48 48 45 32 29 35 32 29 29 26 23 23 23 23 16 13 10 10 10 10 6 6 6 6 6 6 3 3 0 0 0 0 0 0 0 0 0 0 0 0 0
61 55 52 45 42 29 29 23 23 23 26 19 19 16 13 13 13 10 6 6 3 3 3 6 6 6 6 6 3 3 3 0 0 0 0 0 0 0 0 0 0 0 0
65 55 55 52 32 23 19 26 23 26 23 19 13 13 13 13 13 6 6 6 3 3 3 3 3 3 3 3 3 3 0 0 0 0 0 0 0 0 0 0 0 0 0
61 52 55 48 35 29 19 23 23 23 16 13 13 13 13 13 6 3 3 0 0 0 3 3 3 3 3 3 3 0 0 0 0 0 0 0 0 0 0 0 0 0 0
58 52 45 52 39 32 26 19 19 10 10 10 10 10 10 3 3 3 0 0 0 0 0 0 0 0 0 0 0 0 0 0 0 0 0 0 0 0 0 0 0 0 0
48 52 39 39 29 23 23 13 10 6 10 10 10 10 3 0 0 0 0 0 0 0 0 0 0 0 0 0 0 0 0 0 0 0 0 0 0 0 0 0 0 0 0
45 35 32 26 23 16 16 16 13 6 6 6 0 0 0 0 0 0 0 0 0 0 0 0 0 0 0 0 0 0 0 0 0 0 0 0 0 0 0 0 0 0 0
45 32 29 19 16 16 13 10 10 10 3 3 0 0 0 0 0 0 0 0 0 0 0 0 0 0 0 0 0 0 0 0 0 0 0 0 0 0 0 0 0 0 0
39 29 23 16 16 13 10 10 10 6 3 0 0 0 0 0 0 0 0 0 0 0 0 0 0 0 0 0 0 0 0 0 0 0 0 0 0 0 0 0 0 0 0
26 26 26 19 16 10 13 10 10 3 3 0 0 0 0 0 0 0 0 0 0 0 0 0 0 0 0 0 0 0 0 0 0 0 0 0 0 0 0 0 0 0 0
23 26 19 19 6 6 6 6 6 3 3 3 0 0 0 0 0 0 0 0 0 0 0 0 0 0 0 0 0 0 0 0 0 0 0 0 0 0 0 0 0 0 0
19 19 16 6 0 3 3 3 3 3 3 3 3 0 0 0 0 0 0 0 0 0 0 0 0 0 0 0 0 0 0 0 0 0 0 0 0 0 0 0 0 0 0

GEFSMW_con_cape1000_186.txt.gz
Probability
10 13 19 23 26 16 13 13 16 10 16 13 13 13 13 10 6 3 3 6 6 13 6 10 3 6 3 3 0 3 6 3 3 0 0 0 0 0 0 0 0 0 3
13 19 26 29 23 23 16 16 19 13 10 16 10 10 6 6 6 10 10 6 6 13 13 3 3 3 3 3 3 0 0 0 0 0 0 0 0 0 0 0 0 0 0
16 23 26 32 23 26 26 23 16 10 6 10 16 13 10 10 10 6 6 3 3 6 10 6 3 3 3 3 3 3 3 3 3 0 0 0 0 0 0 0 0 0 0
23 19 23 26 32 29 29 19 6 6 10 6 13 19 13 13 13 6 6 3 3 0 3 3 0 3 3 3 3 3 3 3 3 3 0 0 0 0 0 0 0 0 0
26 23 23 29 35 35 26 13 6 10 13 13 16 13 10 13 10 3 6 3 3 3 3 3 3 0 0 3 3 3 3 3 3 3 3 0 0 0 0 3 0 0 0
29 32 35 32 35 29 19 19 13 6 10 10 13 10 13 10 3 3 3 3 0 0 0 0 0 0 0 0 3 3 3 3 3 3 3 3 3 0 0 3 3 3 3
32 39 39 35 39 32 29 29 16 13 16 13 16 13 10 6 6 6 0 0 0 0 0 3 0 0 0 3 3 3 3 3 3 3 3 3 3 3 3 3 3 3 3
32 39 45 42 39 35 35 32 32 23 16 16 13 13 10 6 3 3 3 0 0 0 0 3 3 3 3 3 3 3 3 3 3 3 3 3 3 3 3 3 3 3 3
35 39 35 39 39 39 35 39 29 23 16 13 23 13 10 6 10 6 6 3 3 3 6 6 6 3 3 3 0 0 0 0 0 0 0 0 0 0 0 0 3 3 0
39 35 35 32 35 35 32 32 26 19 10 16 16 19 13 13 13 13 10 10 6 3 13 13 6 3 3 3 0 0 0 0 0 0 0 0 0 0 0 0 0 0 0
52 39 35 32 29 29 23 32 23 19 19 13 16 19 13 13 10 10 13 16 16 13 10 6 6 3 0 0 0 0 0 0 0 0 0 0 0 0 0 0 0 0 0
42 39 32 32 32 29 23 19 23 16 16 16 13 10 13 10 10 13 13 13 10 6 6 3 0 3 3 0 0 0 0 0 0 0 0 0 0 0 0 0 0 0 0
42 42 39 29 29 26 19 16 19 13 19 19 16 13 16 16 13 13 13 6 6 6 3 3 3 3 0 0 0 0 0 0 0 0 0 0 0 0 0 0 0 0 0
42 39 32 32 26 23 23 19 19 19 16 19 19 16 16 16 13 10 10 6 3 3 3 3 3 3 3 3 3 0 0 0 0 0 0 0 0 0 0 0 0 0 0
48 45 35 42 32 32 26 26 23 16 16 16 16 16 16 6 6 6 10 3 3 3 3 3 3 3 3 3 3 3 3 0 0 0 0 0 0 0 0 0 0 0 0
48 45 32 35 29 32 29 23 19 16 16 16 16 10 10 10 6 6 3 3 3 3 3 3 3 3 3 0 0 0 3 0 0 0 0 0 0 0 0 0 0 0 0
42 39 29 29 26 23 19 16 16 16 13 13 10 10 10 10 6 3 0 0 0 0 0 0 0 0 0 0 0 0 0 0 0 0 0 0 0 0 0 0 0 0 0
42 35 32 26 23 23 6 10 10 13 13 10 10 10 10 10 3 0 0 0 0 0 0 0 0 0 0 0 0 0 0 0 0 0 0 0 0 0 0 0 0 0 0
39 32 29 26 23 10 6 10 10 10 6 6 10 10 10 6 3 0 0 0 0 0 0 0 0 0 0 0 0 0 0 0 0 0 0 0 0 0 0 0 0 0 0
35 29 32 23 19 13 10 10 10 6 6 6 6 6 6 3 0 0 0 0 0 0 0 0 0 0 0 0 0 0 0 0 0 0 0 0 0 0 0 0 0 0 0
29 29 26 19 16 13 10 13 13 10 6 6 6 6 6 6 0 0 0 0 0 0 0 0 0 0 0 0 0 0 0 0 0 0 0 0 0 0 0 0 0 0 0
23 23 23 16 10 6 6 10 10 6 6 6 3 3 0 0 0 0 0 0 0 0 0 0 0 0 0 0 0 0 0 0 0 0 0 0 0 0 0 0 0 0 0
23 19 13 6 6 6 6 13 10 6 3 3 3 3 0 0 0 0 0 0 0 0 0 0 0 0 0 0 0 0 0 0 0 0 0 0 0 0 0 0 0 0 0
19 10 10 6 3 3 6 6 3 3 0 3 3 0 0 0 0 0 0 0 0 0 0 0 0 0 0 0 0 0 0 0 0 0 0 0 0 0 0 0 0 0 0
16 10 10 6 10 6 3 0 0 0 3 0 0 0 0 0 0 0 0 0 0 0 0 0 0 0 0 0 0 0 0 0 0 0 0 0 0 0 0 0 0 0 0
6 3 6 6 3 3 0 0 0 0 3 0 0 0 0 0 0 0 0 0 0 0 0 0 0 0 0 0 0 0 0 0 0 0 0 0 0 0 0 0 0 0 0

GEFSMW_con_cape1000_192.txt.gz
Probability
55 65 74 65 77 87 94 90 84 81 87 74 77 77 71 77 74 65 65 61 61 61 74 42 58 58 55 55 45 52 55 52 61 52 39 29 19 29 48 32 29 16 19
61 77 77 74 77 87 90 90 90 87 90 77 90 74 71 71 71 74 77 68 58 52 39 65 68 58 74 77 65 71 65 45 45 58 42 29 29 42 3 26 42 29 29
65 77 81 77 81 87 90 94 90 94 90 87 77 77 84 77 65 71 71 68 65 52 65 61 52 71 61 61 68 71 65 55 55 45 35 32 32 29 16 19 29 35 42
65 74 84 84 84 90 90 94 94 94 90 87 84 74 77 74 71 74 68 65 71 58 55 65 61 58 61 74 68 58 58 61 61 55 58 45 35 42 32 16 23 32 35
68 77 81 87 81 77 87 90 94 94 87 87 87 81 77 77 71 68 68 68 65 61 58 61 61 55 61 71 77 71 61 58 65 74 71 61 61 45 45 16 23 19 16
71 81 77 84 81 81 77 81 81 81 84 84 81 81 77 74 71 68 61 52 65 68 52 52 61 61 68 74 68 65 65 74 74 71 65 61 48 55 48 39 45 35 26
74 84 84 87 84 77 77 74 84 77 77 77 77 81 77 77 77 68 58 58 48 45 65 52 58 58 65 68 74 68 68 61 71 65 58 52 52 48 48 39 35 29 26
87 90 87 90 87 81 81 77 77 77 77 81 81 77 71 74 61 61 58 58 58 45 52 52 52 52 52 48 61 65 65 68 68 55 61 55 39 58 52 52 39 32 23
84 87 87 81 84 81 77 74 74 77 77 77 77 77 71 68 61 68 68 61 55 48 45 45 48 52 45 45 48 65 65 65 58 45 48 42 35 29 35 32 35 32 10
77 77 77 77 81 81 77 71 71 77 77 77 71 65 68 68 61 52 45 52 55 48 45 42 39 39 42 39 45 39 42 35 35 35 35 35 26 26 19 23 23 29 29
87 77 77 84 81 81 74 71 71 77 77 68 68 68 65 65 61 48 45 48 48 42 35 32 35 32 32 29 35 35 32 29 32 26 29 32 29 26 19 19 19 26 26
94 87 81 84 81 74 74 74 74 71 71 68 61 65 61 55 55 42 42 35 35 39 35 29 29 26 26 23 23 23 26 29 29 26 29 26 19 26 19 19 16 26 26
90 84 81 87 84 77 77 74 68 68 65 61 58 58 55 52 45 45 35 32 32 26 23 26 26 26 26 23 23 19 16 16 19 19 19 16 13 19 19 23 19 19 3
97 90 87 87 87 87 84 77 71 61 61 58 55 52 48 45 42 35 29 29 23 23 23 23 26 23 26 16 16 19 19 19 16 16 10 10 10 10 16 16 13 10 13
97 90 87 87 87 87 87 77 71 58 58 55 52 45 39 42 39 32 23 26 23 16 23 23 19 13 10 6 10 10 10 16 16 10 10 10 3 3 6 0 6 6 6
97 97 87 87 87 84 81 71 74 71 61 52 48 42 39 39 39 29 19 23 10 10 16 10 10 10 3 3 0 3 10 13 10 10 6 6 3 3 0 0 0 0 6
97 97 87 81 81 81 77 74 71 68 58 55 42 39 35 32 29 19 19 16 3 6 6 6 6 10 3 0 0 0 3 10 10 10 10 3 0 3 3 0 0 0 0
94 94 87 81 77 74 71 65 65 61 55 48 39 35 32 26 29 23 13 6 6 6 10 10 6 6 3 0 0 0 0 3 0 0 6 3 3 3 3 3 3 3 0
90 90 90 81 74 74 61 55 48 45 42 35 32 35 29 26 23 16 6 6 6 6 6 6 6 6 3 0 0 0 0 0 0 0 0 0 0 0 0 0 3 0 0
87 87 87 74 71 68 61 55 48 45 35 29 29 29 19 26 23 16 13 10 6 6 6 6 6 6 6 0 0 0 0 3 0 0 0 0 0 0 0 0 3 0 0
84 84 84 77 71 65 58 58 55 52 35 29 26 26 19 19 19 16 13 10 10 6 6 6 10 6 3 0 0 0 0 0 0 0 0 0 0 0 0 0 0 0 0
81 81 77 71 65 65 55 55 55 45 32 29 23 16 16 13 10 10 10 10 10 10 10 10 6 3 3 0 0 0 0 0 3 0 0 0 0 0 0 0 0 0 0
77 81 77 74 58 58 55 58 45 29 26 26 26 19 16 10 10 10 10 6 6 6 3 3 3 3 6 0 0 0 0 0 0 6 0 0 0 0 0 0 0 0 0
71 65 74 71 61 55 55 48 35 26 26 26 23 16 16 13 13 10 6 6 6 6 3 0 3 3 6 6 3 3 0 0 0 0 0 0 0 0 0 0 0 0 0
65 65 65 58 52 45 42 32 29 26 26 19 19 13 13 13 13 10 6 6 6 0 0 3 0 0 3 0 0 3 3 3 3 3 6 3 3 0 0 0 0 0 0
55 52 58 48 48 42 29 29 26 23 19 19 13 13 10 10 10 10 3 0 0 0 0 0 0 0 0 0 0 0 0 0 0 0 3 6 3 3 3 3 3 0 0

GEFSMW_con_cape1000_198.txt.gz
Probability
68 68 68 65 71 90 94 97 97 94 94 97 97 94 97 97 90 87 84 84 84 84 81 77 77 84 87 90 94 84 81 81 84 81 68 58 48 55 65 61 52 32 35
77 81 84 77 81 94 97 97 97 97 97 97 97 97 97 97 90 90 87 74 77 87 65 81 87 87 94 87 81 87 81 81 81 77 61 45 39 52 19 45 52 42 35
74 81 84 87 84 94 97 97 97 97 97 97 94 97 97 94 90 90 90 87 81 81 81 71 84 87 81 81 81 81 81 77 77 77 71 48 26 35 42 35 35 45 48
68 74 81 90 94 97 94 97 97 94 94 90 94 94 97 90 90 90 87 87 84 84 77 81 84 84 81 81 77 81 84 77 77 77 74 61 58 42 26 29 23 26 35
68 84 84 94 90 94 94 94 97 94 90 90 90 90 94 90 84 90 90 87 84 84 77 77 84 87 81 77 77 77 74 74 74 74 65 52 52 45 29 13 16 16 26
68 87 81 87 84 87 94 94 94 90 87 87 87 87 87 84 84 81 87 81 84 77 74 71 77 77 74 71 74 77 81 74 74 65 65 65 52 48 39 26 26 23 19
68 84 87 87 87 90 90 90 90 87 87 84 81 87 94 87 84 81 71 74 71 74 74 71 71 74 77 77 74 77 71 68 61 58 55 58 55 52 48 42 35 16 10
71 84 90 90 87 87 90 84 84 81 77 74 74 74 81 84 81 74 71 74 71 74 71 68 65 68 74 71 65 65 61 58 55 48 55 42 42 39 26 32 32 3 3
74 84 90 87 87 81 87 81 81 84 81 77 74 74 74 74 71 74 74 68 68 65 61 61 61 55 58 58 52 45 45 48 42 39 39 35 32 42 35 26 23 13 6
71 74 81 84 84 84 87 77 84 84 84 77 71 68 68 65 68 68 71 65 68 65 58 48 45 45 45 45 48 39 35 39 32 32 32 35 39 35 35 35 32 26 16
65 71 81 81 81 84 84 84 84 81 81 74 68 65 65 61 65 65 61 58 55 58 48 42 39 35 35 32 39 29 29 26 26 26 23 26 32 29 35 26 32 29 13
61 77 81 77 81 77 77 81 81 81 77 71 68 65 61 65 61 55 55 55 48 42 39 35 35 35 29 29 26 23 19 16 16 16 16 19 19 26 29 29 29 26 19
74 84 81 77 77 84 84 81 77 77 71 71 65 65 65 58 58 55 52 52 45 42 39 35 32 29 29 23 19 23 19 16 19 13 16 16 13 16 16 26 19 23 13
87 90 87 81 84 87 87 84 81 77 71 68 65 65 61 55 52 52 48 45 42 42 39 39 29 26 19 13 13 16 10 13 13 13 16 16 10 10 16 13 13 16 10
94 90 87 87 87 87 87 84 81 81 71 71 61 58 48 55 48 48 45 45 45 32 35 26 23 19 13 6 10 10 6 10 10 13 10 10 6 6 6 0 10 10 10
94 94 94 87 87 87 87 84 84 84 81 71 61 58 52 52 45 48 48 42 32 26 23 19 13 6 6 3 3 6 10 10 6 6 3 0 0 0 0 0 0 0 6
94 94 94 90 87 87 87 84 84 77 74 71 61 61 55 45 45 42 32 29 26 19 13 10 10 10 10 6 3 3 6 13 13 10 0 0 0 0 0 0 0 0 0
97 97 97 94 87 87 87 84 84 74 71 71 65 61 58 45 35 32 29 26 23 16 10 10 10 6 6 3 0 0 3 13 10 6 10 0 0 0 0 0 0 0 0
97 97 94 90 87 87 84 84 84 77 68 68 58 55 45 35 32 23 19 23 23 10 10 10 10 6 6 3 0 0 3 10 10 10 3 0 0 0 0 0 0 0 0
94 94 94 90 90 84 81 77 71 71 65 58 48 42 42 35 32 23 19 19 16 13 10 10 10 6 6 3 0 0 3 6 10 6 3 0 0 0 0 0 0 0 0
94 94 94 87 87 81 77 77 68 65 61 52 52 42 39 39 39 19 19 19 10 10 10 10 10 6 6 6 0 0 0 6 6 3 0 0 0 0 0 0 0 3 0
90 87 90 87 87 81 77 71 65 65 58 58 48 42 39 26 23 23 26 16 16 10 10 6 6 6 3 0 0 0 0 0 0 3 3 0 0 0 0 0 0 0 0
81 84 84 87 77 71 77 71 65 61 55 52 45 39 32 29 26 23 13 13 19 10 10 6 6 6 6 0 0 0 0 0 0 0 0 0 0 0 0 0 0 0 0
77 81 81 81 77 74 74 68 68 61 52 42 39 39 29 29 26 23 13 13 10 13 6 6 6 6 6 3 0 0 0 0 0 0 0 0 0 0 0 0 0 0 0
74 77 81 77 74 74 65 68 55 58 48 42 35 32 29 19 23 10 10 10 6 6 3 6 6 6 6 0 0 0 3 3 0 0 3 3 3 0 0 0 0 0 0
77 77 74 71 74 68 61 61 52 52 52 35 29 23 19 13 6 10 6 3 0 0 0 0 0 0 0 0 0 0 0 0 0 0 0 0 0 3 0 3 3 3 3

GEFSMW_con_cape1000_204.txt.gz
Probability
23 26 39 42 45 48 42 42 39 42 42 42 32 32 26 29 23 13 16 13 10 13 10 6 10 6 6 6 6 10 10 0 3 0 0 0 0 0 0 0 0 0 0
29 32 42 52 48 48 45 39 39 45 42 39 35 39 39 29 32 23 16 19 10 6 19 6 10 13 6 10 3 3 10 0 0 0 0 0 0 0 0 0 0 0 0
29 39 48 48 55 55 45 55 48 45 42 42 45 39 39 35 23 19 16 16 10 6 10 10 10 10 6 6 6 6 6 0 0 0 0 0 0 0 0 0 0 0 0
32 42 45 52 58 55 48 45 52 52 45 39 39 39 29 29 19 16 16 23 19 10 10 10 10 10 3 10 13 13 3 3 3 0 0 0 0 0 0 0 0 0 0
39 42 52 55 61 55 61 52 58 45 48 39 39 32 29 19 19 23 19 13 10 10 16 13 10 10 10 16 16 13 6 3 0 0 0 0 0 0 0 0 0 0 0
39 55 58 58 65 68 68 61 58 48 52 52 35 32 29 26 23 29 19 16 16 19 23 16 16 6 23 13 16 16 10 3 0 0 0 0 0 0 0 0 0 0 0
58 55 58 65 68 58 58 55 58 55 52 48 45 42 35 29 29 32 26 19 23 23 23 26 19 19 16 13 6 10 10 10 3 3 0 0 0 0 0 0 0 0 0
52 55 55 58 58 58 58 55 58 58 58 52 45 42 42 32 26 26 32 26 23 32 26 23 29 29 26 16 13 13 10 10 6 6 0 0 0 0 0 0 0 0 0
48 61 58 58 58 58 58 55 58 58 58 48 45 45 42 39 35 32 32 29 23 29 26 26 26 19 19 16 16 13 13 10 10 3 0 0 0 0 0 0 0 0 0
45 58 55 55 58 61 55 55 58 58 52 48 45 45 42 35 32 32 29 26 26 26 26 19 16 16 16 16 16 16 16 13 6 3 0 0 0 0 0 0 0 0 0
45 48 52 55 58 61 52 55 58 48 48 42 45 39 35 35 32 32 29 26 26 26 23 23 10 10 13 16 10 10 6 3 3 3 3 3 0 0 0 0 0 0 0
48 45 55 55 52 55 58 55 52 48 52 48 45 42 39 35 29 26 26 26 19 13 13 13 10 10 10 13 10 10 6 3 3 3 0 0 0 0 0 0 0 0 0
48 48 48 52 48 52 58 61 58 58 52 45 45 39 32 26 26 26 26 26 10 13 13 10 6 3 6 6 6 6 6 3 3 3 0 0 0 0 0 0 0 0 0
52 48 52 52 48 58 65 65 55 52 48 48 39 35 29 26 26 23 26 23 13 10 6 3 6 3 3 3 3 3 3 3 3 0 0 0 0 0 0 0 0 0 0
58 55 52 48 55 58 68 65 55 48 48 48 39 32 29 23 23 23 23 16 16 10 3 6 6 6 3 3 3 3 3 3 3 0 0 0 0 0 0 0 0 0 0
58 55 55 58 61 61 68 65 61 45 45 42 42 32 29 23 19 10 6 6 6 6 6 6 6 6 6 6 3 3 3 3 3 0 0 0 0 0 0 0 0 0 0
58 61 55 61 65 61 68 68 55 45 45 42 42 32 26 19 13 6 3 6 6 6 3 3 3 3 3 6 3 3 3 3 3 3 0 0 0 0 0 0 0 0 0
77 71 58 68 65 65 65 55 55 45 45 45 39 29 23 16 6 6 6 6 6 3 3 3 3 3 3 3 3 3 0 3 3 0 0 0 0 0 0 0 0 0 0
68 71 71 71 68 71 68 58 48 45 42 42 35 23 19 10 6 6 6 6 3 3 3 3 3 3 3 3 3 0 0 0 0 0 0 0 0 0 0 0 0 0 0
74 77 71 71 71 68 58 58 48 35 35 35 29 29 16 10 10 6 6 6 3 3 3 3 3 3 3 3 3 0 0 0 0 0 0 0 0 0 0 0 0 0 0
81 81 71 65 61 55 48 55 48 35 29 29 26 16 10 3 10 6 6 3 3 3 3 3 3 3 3 3 0 0 0 0 0 0 0 0 0 0 0 0 0 0 0
77 74 68 61 61 55 48 42 39 29 26 26 19 19 10 6 6 6 6 0 3 3 3 3 3 3 0 0 0 0 0 0 0 0 0 0 0 0 0 0 0 0 0
71 68 65 61 48 45 48 42 35 29 29 23 19 19 13 6 3 6 6 3 0 3 3 3 0 0 0 0 0 0 0 0 0 0 0 0 0 0 0 0 0 0 0
58 65 61 55 48 45 42 39 32 29 26 19 16 16 10 10 3 6 3 3 3 3 3 3 0 0 0 0 0 0 0 0 0 0 0 0 0 0 0 0 0 0 0
52 52 58 55 42 39 32 35 32 26 26 23 19 19 10 6 6 3 3 3 3 0 0 0 0 0 0 0 0 0 0 0 0 0 0 0 0 0 0 0 0 0 0
48 52 45 42 45 35 29 29 29 23 23 19 13 13 10 6 6 6 3 3 3 0 0 0 0 0 0 0 0 0 0 0 0 0 0 0 0 0 0 0 0 0 0